PBO Station Position Time Series. Reference Frame : NAM14
Format Version,1.1.1
4-character ID,AV07
Station name,AKU_NWSlopAK2005
Begin Date, 2005-07-06
End Date, 2023-06-17
Release Date, 2023-06-27
Reference position, 54.1629366516 North Latitude, -166.0385369320 East Longitude, 521.09336 meters elevation,
Date, North (mm), East (mm), Vertical (mm), North Std. Deviation (mm), East Std. Deviation (mm),              Vertical Std. Deviation (mm), Quality,
2005-07-06,0.00, 0.00, 0.00, 2.26, 1.65, 7.61, repro,
2005-07-07,0.57, -0.39, -5.81, 2.40, 1.77, 7.67, repro,
2005-07-08,1.90, 2.41, -2.76, 2.36, 1.70, 7.44, repro,
2005-07-09,1.09, -2.03, 8.02, 2.38, 1.70, 7.42, repro,
2005-07-10,1.38, -1.31, 3.65, 2.39, 1.71, 7.44, repro,
2005-07-11,-0.11, -1.29, 2.12, 2.38, 1.71, 7.48, repro,
2005-07-12,-0.13, 0.04, -2.31, 2.37, 1.71, 7.46, repro,
2005-07-13,-0.13, -2.96, -2.92, 2.34, 1.70, 7.38, repro,
2005-07-14,1.14, -2.09, 3.22, 2.36, 1.68, 7.35, repro,
2005-07-15,3.39, -2.14, 4.56, 2.37, 1.70, 7.44, repro,
2005-07-16,0.11, 1.30, -2.29, 2.38, 1.72, 7.51, repro,
2005-07-17,2.74, -1.47, 2.09, 2.37, 1.71, 7.48, repro,
2005-07-18,1.99, -2.99, 5.49, 2.36, 1.71, 7.43, repro,
2005-07-19,2.29, -2.36, -3.01, 2.35, 1.68, 7.36, repro,
2005-07-20,3.18, -2.54, -2.33, 2.35, 1.68, 7.36, repro,
2005-07-21,3.21, -2.85, -5.19, 2.37, 1.71, 7.48, repro,
2005-07-22,3.40, -2.70, -7.25, 2.38, 1.72, 7.50, repro,
2005-07-23,1.19, -3.61, 6.41, 2.37, 1.71, 7.46, repro,
2005-07-24,-0.63, -2.55, -1.86, 2.41, 1.73, 7.46, repro,
2005-07-25,1.98, -5.06, 1.14, 2.40, 1.74, 7.46, repro,
2005-07-26,1.63, -2.06, -9.23, 2.48, 1.77, 7.66, repro,
2005-07-27,1.02, -3.79, -5.44, 2.51, 1.81, 7.83, repro,
2005-07-28,1.33, -4.67, -6.26, 2.49, 1.79, 7.75, repro,
2005-07-29,0.99, -3.81, -0.20, 2.42, 1.74, 7.50, repro,
2005-07-30,2.54, -3.75, 0.07, 2.41, 1.73, 7.45, repro,
2005-07-31,-3.60, 1.83, -3.44, 2.41, 1.75, 7.52, repro,
2005-08-01,0.26, -4.33, -3.71, 2.43, 1.76, 7.59, repro,
2005-08-02,0.83, -6.68, 3.14, 2.43, 1.76, 7.57, repro,
2005-08-03,2.74, -5.00, 0.08, 2.36, 1.70, 7.42, repro,
2005-08-04,2.97, -3.35, -4.50, 2.37, 1.69, 7.40, repro,
2005-08-05,3.29, -4.30, -7.09, 2.35, 1.68, 7.34, repro,
2005-08-06,7.61, -5.78, 2.36, 2.38, 1.70, 7.42, repro,
2005-08-07,1.98, -6.50, 16.34, 2.45, 1.75, 7.58, repro,
2005-08-08,-17.12, 0.82, 1.29, 2.57, 1.80, 7.86, repro,
2005-08-09,-13.13, 17.08, -39.39, 2.62, 1.88, 8.22, repro,
2005-08-10,-7.33, -0.01, -16.17, 2.38, 1.70, 7.44, repro,
2005-08-11,-15.21, 11.29, -35.64, 2.46, 1.76, 7.63, repro,
2005-08-12,1.09, -8.21, 24.67, 2.47, 1.78, 7.65, repro,
2005-08-13,-0.03, -2.69, 2.28, 2.34, 1.69, 7.33, repro,
2005-08-14,2.66, -7.13, 5.80, 2.35, 1.68, 7.33, repro,
2005-08-15,-0.19, 5.62, -26.38, 2.37, 1.69, 7.44, repro,
2005-08-16,6.25, -5.83, -0.56, 2.42, 1.72, 7.58, repro,
2005-08-17,3.60, -5.34, -3.70, 2.44, 1.73, 7.49, repro,
2005-08-18,1.06, -4.02, -1.00, 2.36, 1.69, 7.39, repro,
2005-08-19,1.55, -6.61, 8.95, 2.36, 1.69, 7.37, repro,
2005-08-20,2.31, -6.06, 4.00, 2.36, 1.69, 7.39, repro,
2005-08-21,5.33, -5.05, -4.39, 2.37, 1.69, 7.42, repro,
2005-08-22,3.34, -1.07, -4.54, 2.38, 1.71, 7.49, repro,
2005-08-23,5.05, -4.51, 18.65, 2.37, 1.71, 7.41, repro,
2005-08-24,0.84, -6.05, 5.30, 2.35, 1.71, 7.39, repro,
2005-08-25,2.66, -5.86, 12.49, 2.44, 1.72, 7.50, repro,
2005-08-26,1.84, -6.15, 9.39, 2.36, 1.69, 7.40, repro,
2005-08-27,3.41, -6.96, 0.31, 2.38, 1.69, 7.41, repro,
2005-08-28,4.37, -2.31, -0.96, 2.39, 1.72, 7.49, repro,
2005-08-29,4.99, -3.34, 4.36, 2.38, 1.73, 7.59, repro,
2005-08-30,0.02, -4.18, 3.46, 2.37, 1.69, 7.38, repro,
2005-08-31,-0.07, -7.02, -3.63, 2.38, 1.69, 7.42, repro,
2005-09-01,1.00, -6.98, 5.16, 2.36, 1.68, 7.38, repro,
2005-09-02,2.82, -5.55, 13.24, 2.34, 1.69, 7.36, repro,
2005-09-03,2.60, -3.34, 3.11, 2.35, 1.69, 7.32, repro,
2005-09-25,1.95, -5.30, 0.99, 3.50, 2.66, 12.12, repro,
2005-09-26,-2.10, 4.05, -19.10, 2.40, 1.71, 7.53, repro,
2005-09-27,-2.22, -5.28, 6.46, 2.41, 1.72, 7.55, repro,
2005-09-28,1.21, -3.67, 12.67, 2.43, 1.76, 7.67, repro,
2005-09-29,3.65, -4.32, 5.85, 2.41, 1.75, 7.61, repro,
2005-09-30,2.29, -4.57, 7.01, 2.37, 1.69, 7.34, repro,
2005-10-01,1.12, -5.06, 9.00, 2.35, 1.68, 7.35, repro,
2005-10-02,2.09, -5.19, -2.51, 2.39, 1.71, 7.46, repro,
2005-10-03,-0.40, -2.01, -7.44, 2.42, 1.71, 7.52, repro,
2005-10-04,-0.84, -2.78, -0.99, 2.43, 1.72, 7.57, repro,
2005-10-05,0.75, -5.02, 6.72, 2.35, 1.67, 7.35, repro,
2005-10-06,1.11, -4.89, 6.67, 2.35, 1.67, 7.33, repro,
2005-10-07,3.79, -5.92, 15.43, 2.35, 1.68, 7.36, repro,
2005-10-08,0.15, -2.92, 14.78, 2.35, 1.68, 7.33, repro,
2005-10-09,1.30, -5.64, 12.90, 2.37, 1.68, 7.40, repro,
2005-10-10,-1.04, -3.99, 0.40, 2.34, 1.67, 7.31, repro,
2005-10-11,0.02, -6.60, 6.17, 2.39, 1.69, 7.42, repro,
2005-10-12,1.00, -4.86, 13.52, 2.38, 1.69, 7.45, repro,
2005-10-13,3.45, -5.69, 10.97, 2.38, 1.70, 7.46, repro,
2005-10-14,2.08, -4.05, 1.79, 2.42, 1.72, 7.53, repro,
2005-10-15,-0.94, -5.82, -1.71, 2.37, 1.68, 7.38, repro,
2005-10-16,3.82, -5.42, 10.31, 2.38, 1.69, 7.42, repro,
2005-10-17,3.12, -8.06, 18.13, 2.44, 1.73, 7.59, repro,
2005-10-18,1.38, -5.18, 11.77, 2.40, 1.72, 7.51, repro,
2005-10-19,2.32, -7.64, -0.47, 2.44, 1.74, 7.57, repro,
2005-10-20,1.89, -5.75, 9.44, 2.42, 1.75, 7.57, repro,
2005-10-21,1.76, -7.35, 16.46, 2.37, 1.69, 7.45, repro,
2005-10-22,-1.25, -8.07, 9.42, 2.38, 1.70, 7.46, repro,
2005-10-23,1.34, -7.52, 12.82, 2.37, 1.69, 7.44, repro,
2005-10-24,1.19, -7.01, 9.49, 2.36, 1.69, 7.38, repro,
2005-10-25,1.26, -6.65, 5.09, 2.35, 1.68, 7.34, repro,
2005-10-26,-1.81, -6.26, 7.64, 2.42, 1.71, 7.51, repro,
2005-10-27,-0.41, -5.55, 7.80, 2.38, 1.70, 7.47, repro,
2005-10-28,0.31, -5.54, 7.42, 2.37, 1.71, 7.46, repro,
2005-10-29,-1.46, -5.62, 10.07, 2.40, 1.73, 7.52, repro,
2005-10-30,-0.49, -7.01, 10.60, 2.34, 1.69, 7.35, repro,
2005-10-31,-0.71, -4.04, 5.46, 2.41, 1.74, 7.60, repro,
2005-11-01,-1.40, -5.11, 14.49, 2.49, 1.79, 7.81, repro,
2005-11-02,-0.95, -5.06, 10.69, 2.51, 1.79, 7.84, repro,
2005-11-03,-1.17, -5.44, 12.66, 2.42, 1.74, 7.66, repro,
2005-11-04,-1.87, -5.81, 8.80, 2.46, 1.78, 7.77, repro,
2005-11-05,0.45, -4.67, -0.42, 2.45, 1.74, 7.69, repro,
2005-11-06,-0.38, -4.92, 0.27, 2.47, 1.77, 7.74, repro,
2005-11-07,-3.99, -4.96, 1.56, 2.46, 1.74, 7.74, repro,
2005-11-08,-5.63, -8.00, 9.11, 2.54, 1.82, 7.90, repro,
2005-11-09,-2.86, -7.68, 11.81, 2.47, 1.78, 7.78, repro,
2005-11-10,1.18, -8.31, 16.77, 2.63, 1.94, 8.61, repro,
2005-11-11,-1.35, -7.29, 15.66, 2.51, 1.85, 7.97, repro,
2005-11-12,-0.67, -6.33, 2.57, 2.37, 1.68, 7.45, repro,
2005-11-13,-0.09, -7.04, 0.72, 2.59, 1.92, 8.47, repro,
2005-11-14,-0.70, -6.49, 0.24, 2.48, 1.78, 7.81, repro,
2005-11-15,-0.61, -7.87, 7.06, 2.36, 1.70, 7.50, repro,
2005-11-16,-0.15, -13.71, 11.83, 2.40, 1.74, 7.50, repro,
2005-11-17,10.00, -18.12, 20.75, 2.34, 1.68, 7.35, repro,
2005-11-18,7.48, -17.98, 27.52, 2.34, 1.68, 7.34, repro,
2005-11-19,5.06, -13.88, 27.20, 2.35, 1.69, 7.39, repro,
2005-11-20,6.51, -12.22, 29.01, 2.46, 1.75, 7.62, repro,
2005-11-21,5.33, -10.28, 23.47, 2.52, 1.80, 7.99, repro,
2005-11-22,6.29, -11.85, 22.02, 2.39, 1.71, 7.47, repro,
2005-11-23,4.78, -10.37, 23.34, 2.34, 1.68, 7.33, repro,
2005-11-24,3.69, -8.34, 25.64, 2.37, 1.68, 7.37, repro,
2005-11-25,2.64, -7.86, 23.99, 2.42, 1.72, 7.54, repro,
2005-11-26,0.56, -5.16, 15.14, 2.56, 1.81, 7.86, repro,
2005-11-27,-5.29, -0.47, 7.08, 2.43, 1.73, 7.62, repro,
2005-11-28,-1.81, -4.52, 2.94, 2.48, 1.76, 7.57, repro,
2005-11-29,-0.39, -3.68, 3.10, 2.34, 1.68, 7.30, repro,
2005-11-30,0.55, -4.88, -3.12, 2.49, 1.76, 7.74, repro,
2005-12-01,0.77, -2.83, 1.80, 2.42, 1.70, 7.57, repro,
2005-12-02,0.68, -1.43, 0.98, 2.47, 1.74, 7.76, repro,
2005-12-03,1.65, -2.59, 5.71, 2.34, 1.68, 7.37, repro,
2005-12-04,-0.61, -3.49, 5.17, 2.33, 1.67, 7.26, repro,
2005-12-05,1.67, -6.09, -5.45, 2.42, 1.72, 7.53, repro,
2005-12-06,-3.38, -1.08, 3.03, 2.41, 1.73, 7.59, repro,
2005-12-07,-6.27, 2.91, -7.11, 2.47, 1.75, 7.70, repro,
2005-12-08,-1.39, -2.21, 4.03, 2.41, 1.72, 7.50, repro,
2005-12-09,0.22, -5.19, 12.62, 2.36, 1.67, 7.37, repro,
2005-12-10,-2.71, -7.38, 16.12, 2.41, 1.71, 7.46, repro,
2005-12-11,-0.58, -6.83, 8.05, 2.48, 1.75, 7.66, repro,
2005-12-12,-1.43, -4.40, 6.99, 2.41, 1.72, 7.52, repro,
2005-12-13,-4.67, 3.28, -6.56, 2.34, 1.68, 7.35, repro,
2005-12-14,-6.29, 1.04, -1.64, 2.39, 1.71, 7.49, repro,
2005-12-15,-2.93, -4.17, 5.78, 2.43, 1.76, 7.80, repro,
2005-12-16,-1.86, -3.32, 4.17, 2.61, 1.87, 8.20, repro,
2005-12-17,-4.59, -1.94, -4.00, 2.37, 1.72, 7.47, repro,
2005-12-18,-0.61, -6.47, 3.13, 2.39, 1.69, 7.40, repro,
2005-12-19,-2.97, -1.71, -4.57, 2.47, 1.73, 7.75, repro,
2005-12-20,-3.96, 1.63, -15.41, 2.59, 1.83, 8.13, repro,
2005-12-21,0.67, -4.44, 8.31, 2.57, 1.84, 8.15, repro,
2005-12-22,-2.80, 1.51, -8.62, 2.55, 1.82, 8.30, repro,
2005-12-23,-2.60, -1.28, -0.50, 2.55, 1.80, 8.03, repro,
2005-12-24,-4.90, 2.66, -4.89, 2.83, 1.99, 8.76, repro,
2005-12-25,1.51, -4.90, 12.88, 2.56, 1.85, 8.36, repro,
2005-12-26,-0.12, -4.03, 4.12, 2.37, 1.70, 7.42, repro,
2005-12-27,-1.59, -3.48, 8.31, 2.66, 1.91, 8.84, repro,
2005-12-28,0.12, -3.83, -6.24, 2.48, 1.78, 7.83, repro,
2005-12-29,-1.14, -6.51, -0.38, 2.62, 1.87, 8.51, repro,
2005-12-30,-0.10, -6.47, 8.36, 2.55, 1.87, 8.27, repro,
2005-12-31,-0.55, -2.04, 8.73, 2.78, 1.99, 8.68, repro,
2006-01-01,-1.52, -2.90, 10.12, 2.59, 1.86, 8.40, repro,
2006-01-02,-1.76, -3.97, 6.01, 2.43, 1.75, 7.66, repro,
2006-01-03,1.13, -3.85, -2.94, 2.69, 1.93, 8.90, repro,
2006-01-04,-2.16, -4.23, 1.29, 2.54, 1.84, 8.30, repro,
2006-01-05,-1.01, -3.82, 8.70, 2.71, 2.07, 8.72, repro,
2006-01-06,-1.11, -2.61, 8.72, 2.72, 1.98, 9.11, repro,
2006-01-07,-5.04, -1.42, 5.87, 2.43, 1.75, 7.58, repro,
2006-01-08,0.93, -4.93, 9.49, 2.65, 1.89, 8.54, repro,
2006-01-09,-0.85, -5.21, 6.73, 2.68, 1.89, 8.58, repro,
2006-01-10,1.01, -4.97, 8.94, 2.70, 1.92, 8.94, repro,
2006-01-11,0.51, -3.82, 10.55, 2.64, 1.92, 8.82, repro,
2006-01-12,-1.34, -3.37, 6.27, 2.56, 1.82, 8.03, repro,
2006-01-13,-0.55, -0.64, 2.71, 2.57, 1.86, 8.40, repro,
2006-01-14,0.27, -1.93, 2.89, 2.42, 1.75, 7.58, repro,
2006-01-15,2.61, -8.44, -0.26, 2.48, 1.79, 7.80, repro,
2006-01-16,12.31, -18.56, 7.18, 2.51, 1.80, 7.82, repro,
2006-01-17,11.73, -16.08, 7.77, 2.45, 1.76, 7.62, repro,
2006-01-18,7.21, -16.23, 10.81, 2.42, 1.73, 7.50, repro,
2006-01-19,3.31, -16.28, 12.14, 2.45, 1.77, 7.71, repro,
2006-01-20,2.88, -16.66, 12.61, 2.43, 1.76, 7.62, repro,
2006-01-21,1.71, -17.62, 10.81, 2.36, 1.71, 7.47, repro,
2006-01-22,6.98, -18.94, 15.50, 2.39, 1.72, 7.54, repro,
2006-01-23,6.17, -18.28, 12.07, 2.38, 1.71, 7.48, repro,
2006-01-24,7.81, -18.35, 4.27, 2.42, 1.76, 7.65, repro,
2006-01-25,5.24, -16.88, 4.40, 2.33, 1.65, 7.29, repro,
2006-01-26,6.64, -17.65, 10.64, 2.32, 1.65, 7.25, repro,
2006-01-27,7.23, -17.50, 11.10, 2.33, 1.64, 7.29, repro,
2006-01-28,8.35, -17.69, 7.05, 2.34, 1.65, 7.29, repro,
2006-01-29,7.81, -19.19, 10.91, 2.31, 1.65, 7.26, repro,
2006-01-30,9.90, -18.90, 9.97, 2.33, 1.66, 7.35, repro,
2006-01-31,10.03, -19.81, 12.49, 2.32, 1.66, 7.35, repro,
2006-02-01,10.41, -18.99, 16.78, 2.31, 1.65, 7.30, repro,
2006-02-02,9.28, -16.33, 9.39, 2.32, 1.64, 7.30, repro,
2006-02-03,6.78, -12.17, 6.26, 2.33, 1.65, 7.26, repro,
2006-02-04,8.59, -11.40, 10.96, 2.35, 1.69, 7.55, repro,
2006-02-05,11.61, -14.95, 10.37, 2.32, 1.66, 7.33, repro,
2006-02-06,10.13, -15.66, 17.78, 2.34, 1.70, 7.53, repro,
2006-02-07,8.96, -11.32, 16.10, 2.33, 1.66, 7.32, repro,
2006-02-08,10.99, -11.23, 12.38, 2.30, 1.65, 7.23, repro,
2006-02-09,5.30, -7.15, 3.03, 2.33, 1.68, 7.46, repro,
2006-02-10,-0.27, -1.14, -1.01, 2.34, 1.74, 7.58, repro,
2006-02-11,0.89, -3.23, 4.15, 2.33, 1.71, 7.71, repro,
2006-02-12,-0.02, -1.50, -1.19, 2.29, 1.67, 7.28, repro,
2006-02-13,3.03, -2.13, 5.12, 2.32, 1.68, 7.33, repro,
2006-02-14,4.21, 0.33, -8.45, 2.31, 1.68, 7.32, repro,
2006-02-15,-3.73, -0.55, -5.99, 2.30, 1.68, 7.31, repro,
2006-02-16,-5.27, -1.21, -5.64, 2.35, 1.74, 7.73, repro,
2006-02-17,0.42, -0.03, -6.35, 2.35, 1.75, 7.71, repro,
2006-02-18,-4.74, -1.48, -4.00, 2.35, 1.74, 7.68, repro,
2006-02-19,1.67, -3.71, 6.93, 2.33, 1.72, 7.47, repro,
2006-02-20,-0.58, -2.87, 1.99, 2.34, 1.72, 7.61, repro,
2006-02-21,-0.29, -3.06, 3.62, 2.32, 1.70, 7.40, repro,
2006-02-22,-0.40, -3.37, 9.27, 2.32, 1.70, 7.39, repro,
2006-02-23,-0.49, -2.96, 7.34, 2.31, 1.70, 7.41, repro,
2006-02-24,-2.26, -2.88, 0.64, 2.39, 1.74, 7.56, repro,
2006-02-25,-0.91, -2.66, 3.56, 2.40, 1.75, 7.61, repro,
2006-02-26,-1.04, -0.94, 5.58, 2.32, 1.70, 7.46, repro,
2006-02-27,-0.63, -2.75, 14.05, 2.30, 1.68, 7.26, repro,
2006-02-28,-1.55, -3.63, 13.73, 2.40, 1.76, 7.93, repro,
2006-03-01,-3.58, -2.43, 8.51, 2.40, 1.74, 7.56, repro,
2006-03-02,-2.46, -4.43, 9.99, 2.33, 1.71, 7.53, repro,
2006-03-03,-2.65, -3.43, 8.02, 2.31, 1.72, 7.53, repro,
2006-03-04,-0.13, -3.13, 3.35, 2.28, 1.64, 7.19, repro,
2006-03-05,0.25, -4.46, 9.19, 2.34, 1.68, 7.42, repro,
2006-03-06,-2.09, -3.06, 2.23, 2.31, 1.66, 7.27, repro,
2006-03-07,-2.05, -4.15, 7.43, 2.31, 1.66, 7.26, repro,
2006-03-08,-0.48, -4.42, 14.03, 2.29, 1.67, 7.27, repro,
2006-03-09,0.53, -2.68, 10.45, 2.30, 1.67, 7.24, repro,
2006-03-10,-8.66, 3.35, 0.44, 2.38, 1.73, 7.54, repro,
2006-03-11,-6.74, 6.07, -6.64, 2.34, 1.68, 7.40, repro,
2006-03-12,-2.38, -2.13, 4.47, 2.33, 1.69, 7.41, repro,
2006-03-13,-0.43, -2.64, 5.35, 2.34, 1.69, 7.46, repro,
2006-03-14,-0.56, -3.16, 0.49, 2.32, 1.69, 7.42, repro,
2006-03-15,0.02, -3.29, 2.49, 2.33, 1.70, 7.47, repro,
2006-03-16,-1.11, -3.00, 5.28, 2.40, 1.74, 7.66, repro,
2006-03-17,-4.16, -1.96, 1.13, 2.39, 1.72, 7.58, repro,
2006-03-18,-0.52, -4.17, 9.05, 2.34, 1.70, 7.48, repro,
2006-03-19,-0.21, -2.16, 2.11, 2.33, 1.69, 7.41, repro,
2006-03-20,-2.56, -4.10, 9.17, 2.31, 1.68, 7.38, repro,
2006-03-21,-2.40, -3.85, 3.76, 2.33, 1.70, 7.45, repro,
2006-03-22,-1.54, -4.82, -5.32, 2.37, 1.72, 7.56, repro,
2006-03-23,-0.90, -4.49, -9.00, 2.38, 1.74, 7.65, repro,
2006-03-24,1.89, -4.18, -0.98, 2.38, 1.75, 7.63, repro,
2006-03-25,2.20, -3.85, -2.22, 2.40, 1.78, 7.80, repro,
2006-03-26,0.33, -3.34, -0.03, 2.40, 1.78, 7.84, repro,
2006-03-27,-3.11, 0.69, -13.50, 2.41, 1.74, 7.68, repro,
2006-03-28,-1.51, -2.10, 4.64, 2.33, 1.68, 7.27, repro,
2006-03-29,-1.22, -3.26, 3.31, 2.31, 1.66, 7.25, repro,
2006-03-30,-2.39, -1.17, -1.59, 2.32, 1.67, 7.28, repro,
2006-03-31,-0.31, -2.99, 3.85, 2.30, 1.65, 7.20, repro,
2006-04-01,0.28, -2.96, 4.89, 2.36, 1.69, 7.47, repro,
2006-04-02,0.20, -2.87, 4.81, 2.31, 1.65, 7.20, repro,
2006-04-03,0.38, 1.45, -10.38, 2.36, 1.68, 7.39, repro,
2006-04-04,-1.81, -1.13, 11.06, 2.35, 1.71, 7.50, repro,
2006-04-05,-2.94, -1.91, 6.61, 2.36, 1.71, 7.52, repro,
2006-04-06,-0.90, -2.62, 3.69, 2.42, 1.76, 7.65, repro,
2006-04-07,-0.22, -1.26, -3.81, 2.46, 1.78, 7.83, repro,
2006-04-08,-1.90, -3.09, 4.80, 2.39, 1.71, 7.66, repro,
2006-04-09,-1.22, -1.57, 4.83, 2.30, 1.66, 7.23, repro,
2006-04-10,-0.77, -2.08, 2.54, 2.32, 1.69, 7.31, repro,
2006-04-11,-2.63, -1.73, -4.19, 2.35, 1.72, 7.59, repro,
2006-04-12,-0.65, -2.83, 11.11, 2.37, 1.72, 7.60, repro,
2006-04-13,-1.71, -4.35, 3.39, 2.34, 1.68, 7.32, repro,
2006-04-14,-1.72, -1.80, 8.31, 2.32, 1.67, 7.23, repro,
2006-04-15,-1.32, -3.43, -3.63, 2.37, 1.73, 7.61, repro,
2006-04-16,-4.23, -2.07, -3.05, 2.48, 1.77, 7.82, repro,
2006-04-17,-1.90, -2.52, 4.41, 2.33, 1.67, 7.31, repro,
2006-04-18,-5.31, -2.26, 2.38, 2.33, 1.67, 7.31, repro,
2006-04-19,-4.36, -2.85, -1.57, 2.32, 1.66, 7.27, repro,
2006-04-20,-2.58, -2.44, 0.59, 2.37, 1.69, 7.34, repro,
2006-04-21,-2.81, -3.01, -4.43, 2.30, 1.67, 7.31, repro,
2006-04-22,-3.46, -3.51, 1.42, 2.31, 1.68, 7.34, repro,
2006-04-23,-3.64, -4.23, -0.26, 2.30, 1.66, 7.25, repro,
2006-04-24,-2.75, -3.70, -1.42, 2.32, 1.66, 7.26, repro,
2006-04-25,-2.55, -3.22, -1.81, 2.36, 1.68, 7.35, repro,
2006-04-26,-1.66, -4.10, -1.63, 2.29, 1.64, 7.21, repro,
2006-04-27,-5.59, -3.01, -3.55, 2.37, 1.72, 7.54, repro,
2006-04-28,-3.92, -6.08, 3.35, 2.33, 1.68, 7.40, repro,
2006-04-29,-4.09, -4.45, 5.85, 2.32, 1.66, 7.29, repro,
2006-04-30,-3.57, -3.77, 1.84, 2.32, 1.66, 7.30, repro,
2006-05-01,-4.63, -3.89, -6.28, 2.30, 1.65, 7.26, repro,
2006-05-02,-3.77, -2.86, -2.65, 2.28, 1.65, 7.25, repro,
2006-05-03,-3.47, -2.88, -0.08, 2.29, 1.67, 7.35, repro,
2006-05-04,-2.46, -3.36, 3.09, 2.31, 1.67, 7.38, repro,
2006-05-05,-2.80, -0.99, 2.04, 2.32, 1.65, 7.33, repro,
2006-05-06,-3.94, -1.37, 7.65, 2.30, 1.66, 7.28, repro,
2006-05-07,-2.18, -1.83, 7.57, 2.28, 1.66, 7.29, repro,
2006-05-08,-2.16, -2.60, 1.01, 2.29, 1.66, 7.27, repro,
2006-05-09,-4.31, -2.35, 2.48, 2.35, 1.72, 7.49, repro,
2006-05-10,-4.27, -1.64, 1.56, 2.32, 1.67, 7.36, repro,
2006-05-11,-3.52, -2.43, 3.88, 2.33, 1.67, 7.34, repro,
2006-05-12,-3.98, -2.41, 1.60, 2.29, 1.66, 7.29, repro,
2006-05-13,-4.84, -1.42, 4.46, 2.28, 1.66, 7.29, repro,
2006-05-14,-4.78, -1.90, -1.42, 2.29, 1.66, 7.26, repro,
2006-05-15,-5.44, -2.55, -1.13, 2.37, 1.70, 7.56, repro,
2006-05-16,0.55, -0.60, 3.20, 2.39, 1.70, 7.53, repro,
2006-05-17,-1.96, -0.99, 3.83, 2.38, 1.70, 7.50, repro,
2006-05-18,-1.63, -1.27, 0.44, 2.29, 1.68, 7.35, repro,
2006-05-19,-5.23, 3.03, -9.28, 2.34, 1.71, 7.51, repro,
2006-05-20,-3.26, -2.43, 6.93, 2.41, 1.76, 7.70, repro,
2006-05-21,-4.48, -0.09, -2.44, 2.36, 1.72, 7.51, repro,
2006-05-22,-2.37, -1.80, 12.11, 2.38, 1.74, 7.61, repro,
2006-05-23,-1.06, -3.12, 15.11, 2.35, 1.71, 7.51, repro,
2006-05-24,0.05, -2.64, 8.15, 2.32, 1.71, 7.43, repro,
2006-05-25,-4.06, -1.61, 7.32, 2.41, 1.75, 7.81, repro,
2006-05-26,-3.43, -2.71, 1.26, 2.41, 1.75, 7.79, repro,
2006-05-27,1.39, -3.36, 7.16, 2.37, 1.74, 7.62, repro,
2006-05-28,-2.81, -1.73, 11.54, 2.36, 1.72, 7.57, repro,
2006-05-29,-1.38, -2.55, 5.94, 2.32, 1.71, 7.44, repro,
2006-05-30,-3.78, -0.72, 4.07, 2.34, 1.72, 7.52, repro,
2006-05-31,-3.19, -1.00, 6.49, 2.41, 1.75, 7.69, repro,
2006-06-01,-2.80, 0.40, 7.06, 2.36, 1.73, 7.55, repro,
2006-06-02,-1.87, -2.44, 1.83, 2.45, 1.81, 8.01, repro,
2006-06-03,-0.56, -3.35, 5.92, 2.49, 1.81, 8.04, repro,
2006-06-04,-3.07, -1.11, 10.74, 2.35, 1.76, 7.76, repro,
2006-06-05,-2.77, -1.29, 9.07, 2.36, 1.74, 7.71, repro,
2006-06-06,-1.59, -1.73, 14.14, 2.37, 1.74, 7.80, repro,
2006-06-07,-3.47, -2.09, 13.41, 2.37, 1.76, 7.83, repro,
2006-06-08,-6.07, -3.96, 10.49, 2.34, 1.72, 7.54, repro,
2006-06-09,-3.46, -3.03, 5.44, 2.34, 1.71, 7.53, repro,
2006-06-10,-2.11, -1.94, 8.44, 2.35, 1.71, 7.50, repro,
2006-06-11,-1.58, -1.45, 12.03, 2.36, 1.70, 7.54, repro,
2006-06-12,-1.45, -0.50, 5.03, 2.36, 1.71, 7.54, repro,
2006-06-13,-1.79, -1.28, 8.14, 2.35, 1.73, 7.59, repro,
2006-06-14,-2.95, -0.92, 1.43, 2.34, 1.72, 7.56, repro,
2006-06-15,-3.32, -0.62, 5.55, 2.36, 1.73, 7.63, repro,
2006-06-16,-2.60, -0.89, 8.75, 2.39, 1.72, 7.62, repro,
2006-06-17,0.83, -2.75, 12.63, 2.37, 1.71, 7.56, repro,
2006-06-18,0.05, -1.20, 10.02, 2.41, 1.77, 7.76, repro,
2006-06-19,0.09, -2.33, 5.23, 2.39, 1.75, 7.71, repro,
2006-06-20,-0.15, -1.78, 2.50, 2.39, 1.75, 7.67, repro,
2006-06-21,-1.41, -1.94, 6.78, 2.41, 1.75, 7.75, repro,
2006-06-22,-0.26, -2.14, 1.46, 2.42, 1.74, 7.72, repro,
2006-06-23,-2.31, -3.11, 1.79, 2.40, 1.76, 7.70, repro,
2006-06-24,-1.99, -1.56, 5.99, 2.38, 1.76, 7.69, repro,
2006-06-25,2.18, 0.22, 15.11, 2.40, 1.75, 7.66, repro,
2006-06-26,-5.15, 6.27, -8.88, 2.42, 1.75, 7.72, repro,
2006-06-27,-2.36, 1.12, 5.87, 2.60, 1.86, 8.45, repro,
2006-06-28,0.82, -0.01, 1.25, 2.39, 1.74, 7.68, repro,
2006-06-29,-1.55, 0.51, 3.07, 2.35, 1.70, 7.48, repro,
2006-06-30,-2.13, -0.71, 7.83, 2.36, 1.72, 7.63, repro,
2006-07-01,-0.42, -0.98, 4.49, 2.34, 1.68, 7.58, repro,
2006-07-02,0.04, 0.11, 3.13, 2.39, 1.72, 7.67, repro,
2006-07-03,-0.31, -2.79, 0.82, 2.34, 1.70, 7.59, repro,
2006-07-04,-14.29, 16.62, -22.36, 2.37, 1.73, 7.74, repro,
2006-07-05,-13.64, 23.50, -48.74, 2.38, 1.74, 7.78, repro,
2006-07-06,-1.62, 4.03, -3.50, 2.35, 1.75, 7.94, repro,
2006-07-07,-0.11, -0.35, 2.72, 2.34, 1.69, 7.54, repro,
2006-07-08,-1.85, -0.33, 6.23, 2.35, 1.69, 7.64, repro,
2006-07-09,-2.97, 10.31, -1.63, 2.40, 1.73, 7.77, repro,
2006-07-10,-2.72, 1.68, -9.35, 2.35, 1.72, 7.63, repro,
2006-07-11,1.77, -0.53, 10.61, 2.34, 1.71, 7.58, repro,
2006-07-12,-0.10, -2.80, 3.81, 2.35, 1.70, 7.59, repro,
2006-07-13,2.01, -3.54, 6.89, 2.37, 1.69, 7.56, repro,
2006-07-14,2.03, -2.53, 5.06, 2.37, 1.71, 7.59, repro,
2006-07-15,0.99, -2.71, 2.92, 2.35, 1.71, 7.60, repro,
2006-07-16,2.14, -2.76, 6.96, 2.34, 1.70, 7.64, repro,
2006-07-17,1.00, -2.73, 11.78, 2.40, 1.75, 7.80, repro,
2006-07-18,1.79, -2.82, 4.02, 2.31, 1.65, 7.31, repro,
2006-07-19,0.61, -2.22, 10.50, 2.30, 1.65, 7.31, repro,
2006-07-20,-0.79, -4.89, 8.42, 2.31, 1.66, 7.39, repro,
2006-07-21,0.73, -3.98, 2.18, 2.31, 1.66, 7.35, repro,
2006-07-22,0.07, -0.28, 5.56, 2.31, 1.69, 7.60, repro,
2006-07-23,0.41, 0.76, -4.07, 2.31, 1.65, 7.35, repro,
2006-07-24,2.07, -2.59, 6.45, 2.30, 1.63, 7.29, repro,
2006-07-25,0.77, -1.46, 2.88, 2.30, 1.63, 7.28, repro,
2006-07-26,2.30, -3.49, 6.49, 2.29, 1.64, 7.36, repro,
2006-07-27,-7.91, 1.95, -8.46, 2.33, 1.65, 7.43, repro,
2006-07-28,1.41, -2.86, 5.17, 2.29, 1.64, 7.27, repro,
2006-07-29,2.43, 1.23, 10.81, 2.29, 1.63, 7.29, repro,
2006-07-30,2.51, 1.67, 9.26, 2.39, 1.69, 7.45, repro,
2006-07-31,2.21, -1.72, 12.67, 2.30, 1.65, 7.32, repro,
2006-08-01,2.74, -2.20, 10.83, 2.30, 1.65, 7.31, repro,
2006-08-02,3.50, -2.73, 2.93, 2.40, 1.72, 7.63, repro,
2006-08-03,1.29, -4.11, 8.94, 2.32, 1.65, 7.36, repro,
2006-08-04,0.72, -2.66, 8.16, 2.40, 1.73, 7.66, repro,
2006-08-05,1.50, -2.47, 10.18, 2.37, 1.68, 7.54, repro,
2006-08-06,1.86, -2.72, 10.89, 2.35, 1.66, 7.48, repro,
2006-08-07,2.00, -3.64, 6.73, 2.34, 1.67, 7.42, repro,
2006-08-08,1.53, -1.53, 3.94, 2.29, 1.64, 7.31, repro,
2006-08-09,1.63, -3.06, 7.07, 2.37, 1.67, 7.42, repro,
2006-08-10,3.20, -2.10, 9.85, 2.34, 1.66, 7.50, repro,
2006-08-11,0.60, 1.85, 7.95, 2.29, 1.63, 7.29, repro,
2006-08-12,1.09, -1.57, 10.59, 2.31, 1.64, 7.37, repro,
2006-08-13,-0.41, 0.87, 13.14, 2.30, 1.64, 7.30, repro,
2006-08-14,1.49, 2.25, 7.46, 2.30, 1.63, 7.30, repro,
2006-08-15,0.27, -0.99, 9.24, 2.40, 1.73, 7.73, repro,
2006-08-16,0.94, -1.78, 10.48, 2.32, 1.64, 7.37, repro,
2006-08-17,-0.27, -1.78, 5.34, 2.32, 1.67, 7.54, repro,
2006-08-18,-0.18, -2.51, 8.04, 2.34, 1.66, 7.42, repro,
2006-08-19,-0.41, -0.32, 4.48, 2.29, 1.64, 7.28, repro,
2006-08-20,1.81, -1.01, 11.56, 2.32, 1.64, 7.35, repro,
2006-08-21,2.25, -0.75, 13.04, 2.35, 1.65, 7.46, repro,
2006-08-22,0.74, -3.20, 12.32, 2.33, 1.65, 7.43, repro,
2006-08-23,-0.81, -2.89, 14.00, 2.34, 1.64, 7.43, repro,
2006-08-24,-1.90, -2.31, 9.89, 2.34, 1.66, 7.50, repro,
2006-08-25,2.14, -2.31, 13.56, 2.40, 1.68, 7.64, repro,
2006-08-26,-3.57, -1.51, 18.48, 2.42, 1.70, 7.67, repro,
2006-08-27,-0.05, -3.59, 15.83, 2.43, 1.69, 7.67, repro,
2006-08-28,1.59, -1.82, 20.94, 2.45, 1.71, 7.77, repro,
2006-08-29,0.93, -3.21, 13.39, 2.44, 1.70, 7.69, repro,
2006-08-30,-1.56, 1.38, 22.40, 2.43, 1.70, 7.70, repro,
2006-08-31,-5.00, -1.80, 11.33, 2.45, 1.69, 7.65, repro,
2006-09-01,-3.29, -0.06, 6.21, 2.44, 1.69, 7.69, repro,
2006-09-02,-1.40, -2.73, 10.27, 2.44, 1.70, 7.71, repro,
2006-09-03,0.01, -2.22, 11.90, 2.45, 1.69, 7.69, repro,
2006-09-04,0.39, -1.79, 15.40, 2.52, 1.74, 7.99, repro,
2006-09-05,1.76, -2.84, 10.71, 2.50, 1.73, 7.92, repro,
2006-09-06,2.66, -0.62, 10.46, 2.47, 1.70, 7.74, repro,
2006-09-07,-0.82, 0.05, 17.43, 2.60, 1.79, 8.18, repro,
2006-09-08,2.29, -1.52, 24.21, 2.52, 1.75, 7.88, repro,
2006-09-09,-2.40, -0.64, 16.50, 2.40, 1.67, 7.60, repro,
2006-09-10,-1.08, -1.82, 16.66, 2.40, 1.67, 7.56, repro,
2006-09-11,0.30, -2.37, 18.42, 2.41, 1.68, 7.62, repro,
2006-09-12,0.48, -2.46, 5.34, 2.40, 1.67, 7.56, repro,
2006-09-13,-1.75, 0.76, -2.09, 2.39, 1.68, 7.58, repro,
2006-09-14,0.55, -0.56, 9.91, 2.59, 1.82, 8.21, repro,
2006-09-15,0.77, 0.61, 19.37, 2.48, 1.76, 7.99, repro,
2006-09-16,-2.52, 2.25, 7.22, 2.36, 1.66, 7.50, repro,
2006-09-17,2.01, -1.72, 8.85, 2.35, 1.65, 7.45, repro,
2006-09-18,-4.28, 5.20, -13.01, 2.41, 1.67, 7.53, repro,
2006-09-19,-0.91, 0.60, 8.54, 2.34, 1.64, 7.42, repro,